Powrót do katalogu

ONEWEB-0032

AktywnyŁącznośćPO
NORAD 45141·PAYLOAD·🇬🇧 United Kingdom

Wystrzelony Feb 6, 2020 z Baikonur Cosmodrome

Loading…

Następne Przeloty (najbliższe 24 godziny)

TLE

ŚwieżeSource: CelesTrak SupGP

Epoka: Sep 14, 2026, 16:03 UTC

1 45141C 20008L   26257.66889306  .00002970  00000+0  85194-2 0  2576
2 45141  87.8902  18.4540 0002164 110.1507   1.2253 13.10366641    16

Śledź ONEWEB-0032 w czasie rzeczywistym z AllMySat

Download on the App Store